[[{"header":{"parameterUnit":"m.s-1","parameterCategory":1,"la1":30.2991,"la2":30.254,"lo1":-89.0895,"lo2":-89.0444,"dy":0.0017,"dx":0.0017,"nx":28,"ny":28,"refTime":"2024-04-24T09:00:00:Z","depth":0,"parameterNumber":2,"parameterNumberName":"U-component_of_WINDS"},"data":[0,0,0,0,0,0,0,0,0,0,0,0,0,0,0,0,0,0,0,0,0,0,0,0,0,0,0,0,0,0,0,0,0,0,0,0,0,0,0,0,0,0,0,0,0,0,0,0,0,0,0,0,0,0,0,0,0,0,-1.6448,-1.6448,0,-1.6406,-1.6405,-1.6405,-1.6315,-1.6314,-1.6312,-1.631,-1.6268,-1.6269,-1.6269,0,0,0,0,0,0,0,0,0,0,0,0,0,-1.6456,-1.6456,-1.6448,-1.6448,-1.6447,-1.6406,-1.6405,-1.6404,-1.6316,-1.6313,-1.6311,-1.6309,-1.6268,-1.6269,-1.6269,0,0,0,0,0,0,0,0,0,0,0,0,0,-1.6437,-1.6456,-1.6448,-1.6398,-1.6393,-1.6406,-1.6405,-1.6404,-1.6316,-1.6313,-1.6311,-1.6308,-1.6268,-1.6269,-1.6269,-1.6329,0,0,-1.6272,-1.6272,0,0,0,0,0,0,0,0,-1.6438,-1.6437,-1.6406,-1.6401,-1.6396,-1.6363,-1.6392,-1.6379,-1.6317,-1.6345,-1.631,-1.6307,-1.6302,-1.63,-1.6298,-1.6327,-1.6325,-1.6272,-1.6273,-1.6273,-1.6273,0,0,0,0,0,0,0,-1.6439,-1.6438,-1.6431,-1.6406,-1.6399,-1.6378,-1.6373,-1.6389,-1.6339,-1.6343,-1.6336,-1.6332,-1.6299,-1.6297,-1.6296,-1.6324,-1.6272,-1.6273,-1.6273,-1.6274,-1.6399,-1.6402,0,0,0,0,0,0,-1.6448,-1.644,-1.6433,-1.643,-1.6411,-1.638,-1.6374,-1.6376,-1.6339,-1.6331,-1.6334,-1.6328,-1.6297,-1.6295,-1.6294,-1.636,-1.6273,-1.6274,-1.6274,-1.6397,-1.64,-1.6403,0,0,0,0,0,0,-1.6448,-1.6448,-1.6434,-1.6433,-1.643,-1.6383,-1.6386,-1.6377,-1.6375,-1.6333,-1.6324,-1.6342,-1.6295,-1.6293,-1.6321,-1.6357,-1.6274,-1.6275,-1.6393,-1.6398,-1.6402,-1.6493,0,0,0,0,0,0,-1.6449,-1.6449,-1.647,-1.6434,-1.643,-1.6461,-1.6389,-1.6378,-1.6377,-1.6368,-1.6337,-1.633,-1.6293,-1.632,-1.6321,-1.6357,-1.6275,-1.639,-1.6395,-1.64,-1.6486,-1.65,-1.6511,0,0,0,0,0,-1.6449,-1.6498,-1.6471,-1.6471,-1.6456,-1.6463,-1.6461,-1.6417,-1.638,-1.6401,-1.6374,-1.633,-1.6354,-1.6323,-1.6324,-1.6361,-1.6387,-1.6394,-1.64,-1.6481,-1.6497,-1.6511,0,0,0,0,0,0,-1.6539,-1.6492,-1.6462,-1.65,-1.6486,-1.6448,-1.6473,-1.6436,-1.6432,-1.6424,-1.6371,-1.6365,-1.6399,-1.6383,-1.635,-1.6416,-1.6364,-1.6371,-1.6425,-1.644,-1.6452,-1.6454,-1.6276,0,0,0,0,0,-1.6564,-1.6573,-1.6531,-1.6569,-1.6564,-1.652,-1.6522,-1.6489,-1.6473,-1.6466,-1.6441,-1.6428,-1.6432,-1.6435,-1.6437,-1.6485,-1.6476,-1.6511,-1.6523,-1.6534,-1.6539,-1.6563,-1.6577,-1.6424,-1.6424,-1.6424,0,0,-1.6613,-1.6589,-1.6598,-1.6587,-1.6572,-1.6583,-1.6515,-1.653,-1.6538,-1.6469,-1.6492,-1.6474,-1.6455,-1.6493,-1.6509,-1.6481,-1.6581,-1.6542,-1.655,-1.655,-1.6571,-1.6586,-1.6599,-1.6428,-1.6428,-1.6427,0,0,-1.671,-1.6693,-1.6721,-1.6708,-1.6687,-1.6658,-1.6665,-1.6633,-1.6618,-1.6641,-1.6589,-1.6599,-1.6607,-1.6596,-1.6591,-1.6686,-1.6645,-1.6688,-1.6752,-1.6776,-1.6788,-1.6798,-1.683,-1.6843,-1.6695,-1.6695,-1.6695,0,-1.6774,-1.6788,-1.6741,-1.6759,-1.6756,-1.6694,-1.6723,-1.6713,-1.6694,-1.6693,-1.6663,-1.6672,-1.6656,-1.6689,-1.6713,-1.6712,-1.6718,-1.669,-1.679,-1.68,-1.6809,-1.6839,-1.6851,-1.67,-1.6699,-1.6699,-1.6698,0,-1.6868,-1.6879,-1.6906,-1.6888,-1.6888,-1.6912,-1.6869,-1.6875,-1.6844,-1.6818,-1.6843,-1.6821,-1.6817,-1.6823,-1.6793,-1.6853,-1.6836,-1.6799,-1.6744,-1.6829,-1.6856,-1.6868,-1.6707,-1.6705,-1.6704,-1.6703,0,0,-1.7017,-1.6974,-1.6984,-1.6975,-1.6948,-1.6956,-1.6978,-1.6974,-1.6979,-1.6969,-1.6986,-1.6995,-1.696,-1.6955,-1.6924,-1.6945,-1.702,-1.6905,-1.6903,-1.6925,-1.7084,-1.711,-1.7124,-1.6994,-1.6996,-1.6998,-1.7085,0,-1.7105,-1.7138,-1.7097,-1.7139,-1.7149,-1.7092,-1.7111,-1.7097,-1.7075,-1.708,-1.7056,-1.7063,-1.7017,-1.7013,-1.7032,-1.7007,-1.7051,-1.7,-1.7008,-1.7009,-1.7012,-1.7139,-1.7166,-1.7249,-1.7095,-1.7097,-1.7098,0,-1.7211,-1.7205,-1.7248,-1.7219,-1.7221,-1.7239,-1.7231,-1.7238,-1.7222,-1.7204,-1.7199,-1.7162,-1.7182,-1.7131,-1.7158,-1.7125,-1.7126,-1.7115,-1.7117,-1.7113,-1.7057,-1.7137,-1.7275,-1.7286,-1.7115,-1.7114,-1.7113,0,-1.7313,-1.7316,-1.7342,-1.7337,-1.7303,-1.7317,-1.7304,-1.7285,-1.7285,-1.728,-1.7279,-1.7277,-1.7276,-1.7275,-1.7238,-1.7205,-1.7269,-1.7216,-1.7254,-1.7255,-1.7268,-1.7267,-1.7405,-1.7274,-1.7274,-1.7273,-1.7273,0,-1.7414,-1.7442,-1.7387,-1.7402,-1.7433,-1.7387,-1.7419,-1.74,-1.7384,-1.7395,-1.7348,-1.736,-1.7311,-1.7318,-1.729,-1.7316,-1.7316,-1.7302,-1.7294,-1.7305,-1.7306,-1.7303,-1.7295,-1.7277,-1.7276,-1.7275,-1.7275,0,-1.7531,-1.7495,-1.7519,-1.7487,-1.7479,-1.7503,-1.7475,-1.7488,-1.7464,-1.7479,-1.748,-1.7442,-1.7448,-1.7412,-1.7412,-1.7393,-1.7432,-1.7415,-1.7437,-1.7431,-1.7471,-1.7467,-1.761,-1.7625,-1.7487,-1.7488,-1.7489,0,-1.7596,-1.7616,-1.7585,-1.7589,-1.7579,-1.7586,-1.7586,-1.7543,-1.7545,-1.7529,-1.7545,-1.7547,-1.7546,-1.7559,-1.7531,-1.7531,-1.7512,-1.7563,-1.7512,-1.7522,-1.751,-1.7508,-1.751,-1.7572,-1.7574,-1.7575,-1.7577,0,-1.7715,-1.7696,-1.7698,-1.7693,-1.7695,-1.7689,-1.7681,-1.7687,-1.7641,-1.7646,-1.7652,-1.7651,-1.7651,-1.7654,-1.7648,-1.7636,-1.7598,-1.7594,-1.7602,-1.7612,-1.7623,-1.7615,-1.7463,-1.7589,-1.7588,-1.7587,-1.7587,-1.7586,-1.7806,-1.7821,-1.7802,-1.7805,-1.7794,-1.7788,-1.7799,-1.7776,-1.778,-1.7776,-1.7751,-1.7761,-1.7746,-1.7734,-1.7726,-1.7733,-1.7709,-1.7722,-1.7725,-1.7728,-1.7734,-1.7624,-1.7733,-1.7732,-1.7732,-1.7732,-1.7731,0,-1.792,-1.7906,-1.7909,-1.7899,-1.7902,-1.7868,-1.7857,-1.7862,-1.7871,-1.7859,-1.786,-1.7866,-1.7869,-1.7843,-1.7842,-1.7854,-1.7836,-1.7855,-1.7852,-1.7849,-1.7757,-1.7748,-1.7868,-1.7868,-1.7868,-1.7868,-1.7868,-1.7868,-1.798,-1.8003,-1.7983,-1.8001,-1.7986,-1.7995,-1.7992,-1.7986,-1.7976,-1.7986,-1.7988,-1.7971,-1.7953,-1.7951,-1.7953,-1.7945,-1.7946,-1.797,-1.7956,-1.7869,-1.7856,-1.7843,-1.7835,-1.7971,-1.7971,-1.8047,-1.8048,-1.8049]},{"header":{"parameterUnit":"m.s-1","parameterCategory":1,"la1":30.2991,"la2":30.254,"lo1":-89.0895,"lo2":-89.0444,"dy":0.0017,"dx":0.0017,"nx":28,"ny":28,"refTime":"2024-04-24T09:00:00:Z","depth":0,"parameterNumber":3,"parameterNumberName":"V-component_of_WINDS"},"data":[0,0,0,0,0,0,0,0,0,0,0,0,0,0,0,0,0,0,0,0,0,0,0,0,0,0,0,0,0,0,0,0,0,0,0,0,0,0,0,0,0,0,0,0,0,0,0,0,0,0,0,0,0,0,0,0,0,0,2.8877,2.8877,0,2.8926,2.8927,2.8927,2.8992,2.8993,2.8994,2.8996,2.9043,2.9043,2.9043,0,0,0,0,0,0,0,0,0,0,0,0,0,2.8838,2.8838,2.8877,2.8877,2.8878,2.8926,2.8927,2.8927,2.8992,2.8993,2.8995,2.8996,2.9043,2.9043,2.9043,0,0,0,0,0,0,0,0,0,0,0,0,0,2.8868,2.8839,2.8877,2.8916,2.892,2.8926,2.8927,2.8928,2.8992,2.8993,2.8995,2.8997,2.9042,2.9043,2.9043,2.9013,0,0,2.9044,2.9044,0,0,0,0,0,0,0,0,2.8866,2.8869,2.891,2.8914,2.8918,2.8955,2.893,2.8956,2.8991,2.8965,2.8996,2.8997,2.9012,2.9015,2.902,2.9015,2.9017,2.9044,2.9045,2.9045,2.9045,0,0,0,0,0,0,0,2.8864,2.8867,2.8896,2.891,2.8915,2.8931,2.8937,2.8936,2.8978,2.8967,2.8972,2.8977,2.9014,2.902,2.9022,2.9018,2.9044,2.9045,2.9045,2.9045,2.8993,2.8991,0,0,0,0,0,0,2.8856,2.8865,2.8895,2.8898,2.8896,2.8931,2.8937,2.8941,2.8979,2.8986,2.8976,2.898,2.9018,2.9021,2.9024,2.8992,2.9045,2.9045,2.9045,2.8994,2.8992,2.899,0,0,0,0,0,0,2.8855,2.8858,2.8893,2.8883,2.8889,2.893,2.8933,2.8941,2.8947,2.8985,2.8993,2.8973,2.902,2.9023,2.9016,2.8994,2.9045,2.9046,2.8996,2.8994,2.8991,2.8927,0,0,0,0,0,0,2.8854,2.8857,2.8846,2.8882,2.8889,2.8884,2.8932,2.8941,2.8948,2.8954,2.8985,2.8992,2.9021,2.9015,2.9016,2.8996,2.9046,2.8998,2.8995,2.8992,2.8931,2.8923,2.8915,0,0,0,0,0,2.8852,2.8825,2.8845,2.8848,2.8876,2.8882,2.8886,2.8922,2.8946,2.8935,2.896,2.8991,2.8997,2.9014,2.9016,2.8995,2.9,2.8996,2.8992,2.8935,2.8924,2.8916,0,0,0,0,0,0,2.8783,2.883,2.8853,2.8837,2.8856,2.8893,2.8881,2.8909,2.892,2.8925,2.8968,2.8975,2.8962,2.8978,2.8996,2.8969,2.9003,2.9,2.8959,2.8949,2.8941,2.8937,2.9046,0,0,0,0,0,2.8767,2.8769,2.881,2.8791,2.88,2.8839,2.8843,2.8869,2.8889,2.8897,2.8921,2.8939,2.8946,2.8948,2.8956,2.8935,2.8943,2.8922,2.8914,2.8907,2.8903,2.8894,2.8886,2.8979,2.8979,2.8979,0,0,2.8731,2.8758,2.8756,2.8778,2.8796,2.8797,2.8844,2.8843,2.8844,2.8896,2.8891,2.891,2.8933,2.8919,2.8914,2.8932,2.888,2.8903,2.8897,2.8897,2.889,2.8881,2.8873,2.8976,2.8977,2.8977,0,0,2.8668,2.8688,2.8675,2.8693,2.8719,2.8746,2.8743,2.8777,2.8792,2.8788,2.8828,2.883,2.884,2.8855,2.8864,2.881,2.8839,2.8811,2.8769,2.876,2.8753,2.8747,2.8728,2.872,2.8808,2.8807,2.8807,0,2.862,2.8624,2.8665,2.8662,2.8671,2.8721,2.8709,2.8724,2.875,2.8756,2.8776,2.8791,2.881,2.88,2.8788,2.8793,2.8791,2.8807,2.8751,2.8745,2.874,2.8722,2.8715,2.8804,2.8804,2.8805,2.8805,0,2.8565,2.8567,2.8554,2.8581,2.8588,2.8581,2.8621,2.8624,2.8651,2.8675,2.8671,2.8696,2.8711,2.8711,2.8736,2.8706,2.8716,2.8743,2.8778,2.8727,2.8711,2.8704,2.8799,2.88,2.8801,2.8802,0,0,2.8456,2.8508,2.8503,2.8516,2.8551,2.8553,2.8549,2.8565,2.8567,2.8585,2.8582,2.8591,2.8617,2.8627,2.8654,2.8647,2.8603,2.8675,2.8676,2.8661,2.8572,2.8551,2.8543,2.8624,2.8622,2.8622,2.8571,0,2.8398,2.8394,2.8432,2.8417,2.842,2.8469,2.8466,2.8486,2.851,2.8516,2.8542,2.8548,2.8582,2.8588,2.8583,2.8609,2.8586,2.8614,2.8621,2.8621,2.8613,2.8535,2.8512,2.8462,2.8565,2.8564,2.8563,0,2.8329,2.8346,2.8331,2.8369,2.8372,2.8367,2.8387,2.8392,2.8417,2.8435,2.8448,2.8481,2.8479,2.8514,2.8513,2.8531,2.8537,2.855,2.8549,2.855,2.8588,2.8533,2.8447,2.844,2.8553,2.8554,2.8555,0,2.8251,2.827,2.8264,2.8275,2.8318,2.8314,2.8332,2.8359,2.8367,2.8384,2.839,2.8405,2.8414,2.8425,2.8461,2.8483,2.8456,2.8493,2.8471,2.847,2.8461,2.8461,2.8375,2.8466,2.8466,2.8466,2.8466,0,2.8182,2.8172,2.823,2.8226,2.8217,2.8262,2.825,2.8273,2.8298,2.8299,2.8343,2.8344,2.8392,2.8398,2.8427,2.8422,2.8425,2.844,2.8447,2.8435,2.8433,2.8439,2.8443,2.8464,2.8465,2.8465,2.8466,0,2.8093,2.8132,2.8129,2.8172,2.8182,2.8173,2.821,2.8208,2.8236,2.8238,2.8241,2.8284,2.8294,2.8332,2.8351,2.837,2.8356,2.8371,2.8347,2.8352,2.8328,2.8329,2.8241,2.8232,2.8329,2.8328,2.8327,0,2.8045,2.8039,2.8082,2.8087,2.8103,2.8111,2.812,2.8165,2.8172,2.8203,2.8198,2.8212,2.8225,2.8239,2.8271,2.8287,2.8302,2.827,2.8304,2.8293,2.8302,2.8301,2.8301,2.8262,2.8261,2.826,2.8259,0,2.7957,2.7978,2.799,2.8009,2.8019,2.8036,2.8056,2.8057,2.8108,2.8114,2.8126,2.8137,2.8158,2.8171,2.8192,2.821,2.8243,2.8249,2.8244,2.8231,2.8218,2.8225,2.8327,2.825,2.8251,2.8251,2.8252,2.8252,2.7887,2.7885,2.7915,2.7928,2.7948,2.7966,2.7967,2.7997,2.8007,2.8029,2.8055,2.8064,2.8092,2.8124,2.814,2.8148,2.8165,2.8159,2.8157,2.8154,2.8149,2.8218,2.8151,2.8152,2.8152,2.8152,2.8153,0,2.7802,2.7825,2.7836,2.7863,2.7874,2.7906,2.793,2.7936,2.7944,2.7968,2.7981,2.7995,2.801,2.8045,2.8062,2.8062,2.8077,2.8065,2.8065,2.8069,2.8132,2.8134,2.8052,2.8052,2.8052,2.8052,2.8052,2.8052,2.7758,2.7756,2.778,2.7789,2.7812,2.7822,2.7833,2.785,2.787,2.7885,2.7897,2.7921,2.795,2.797,2.7985,2.7995,2.7999,2.7982,2.7997,2.8054,2.8064,2.8073,2.8075,2.7983,2.7982,2.7933,2.7933,2.7932]}]]